| time (UTC) | temp F | wind direction | speed MPH | gust MPH | rain 1hr in | rain 24hr in | rain mn in | humidity % | barometer mb |
| 20260505061021 | 54 | 360 | 4.0 | 9.0 | 0.00 | 0.00 | 0.00 | 91 | 1012.6 |
| 20260505060521 | 54 | 360 | 4.0 | 10.0 | 0.00 | 0.00 | 0.00 | 91 | 1012.7 |
| 20260505060024 | 54 | 360 | 5.0 | 11.0 | 0.00 | 0.00 | 0.00 | 91 | 1012.8 |
| 20260505055521 | 54 | 360 | 7.0 | 11.0 | 0.00 | 0.00 | 0.00 | 91 | 1012.8 |
| 20260505055020 | 54 | 248 | 6.0 | 12.0 | 0.00 | 0.00 | 0.00 | 91 | 1012.9 |
| 20260505054523 | 54 | 241 | 6.0 | 12.0 | 0.00 | 0.00 | 0.00 | 91 | 1012.9 |
| 20260505054018 | 54 | 233 | 5.0 | 11.0 | 0.00 | 0.00 | 0.00 | 91 | 1012.9 |
| 20260505053518 | 54 | 215 | 7.0 | 11.0 | 0.00 | 0.00 | 0.00 | 91 | 1012.9 |
| 20260505053018 | 54 | 221 | 7.0 | 11.0 | 0.00 | 0.00 | 0.00 | 91 | 1012.9 |
| 20260505052517 | 54 | 240 | 6.0 | 11.0 | 0.00 | 0.00 | 0.00 | 91 | 1013.1 |
| 20260505052017 | 54 | 249 | 6.0 | 11.0 | 0.00 | 0.00 | 0.00 | 91 | 1013.0 |
| 20260505051517 | 54 | 231 | 6.0 | 10.0 | 0.00 | 0.00 | 0.00 | 90 | 1013.0 |
| 20260505051017 | 54 | 255 | 5.0 | 10.0 | 0.00 | 0.00 | 0.00 | 90 | 1013.0 |
| 20260505050516 | 54 | 235 | 5.0 | 13.0 | 0.00 | 0.00 | 0.00 | 90 | 1013.1 |
| 20260505041507 | 54 | 208 | 9.0 | 15.0 | 0.00 | 0.00 | 0.00 | 89 | 1013.2 |
| 20260505041007 | 54 | 207 | 9.0 | 15.0 | 0.00 | 0.00 | 0.00 | 89 | 1013.2 |
| 20260505040506 | 54 | 205 | 9.0 | 16.0 | 0.00 | 0.00 | 0.00 | 88 | 1013.2 |
| 20260505040005 | 54 | 191 | 10.0 | 17.0 | 0.00 | 0.00 | 0.00 | 88 | 1013.1 |
| 20260505035505 | 54 | 207 | 11.0 | 17.0 | 0.00 | 0.00 | 0.00 | 88 | 1013.2 |
| 20260505035004 | 55 | 193 | 10.0 | 16.0 | 0.00 | 0.00 | 0.00 | 88 | 1013.3 |
| 20260505034504 | 55 | 194 | 7.0 | 14.0 | 0.00 | 0.00 | 0.00 | 88 | 1013.3 |
| 20260505034004 | 55 | 223 | 8.0 | 15.0 | 0.00 | 0.00 | 0.00 | 88 | 1013.1 |
| 20260505033506 | 55 | 200 | 6.0 | 11.0 | 0.00 | 0.00 | 0.00 | 88 | 1013.1 |
| 20260505033004 | 55 | 254 | 4.0 | 11.0 | 0.00 | 0.00 | 0.00 | 88 | 1013.3 |
| 20260505032504 | 55 | 241 | 6.0 | 11.0 | 0.00 | 0.00 | 0.00 | 88 | 1013.2 |
| 20260505032003 | 55 | 248 | 7.0 | 13.0 | 0.00 | 0.00 | 0.00 | 88 | 1013.2 |
| 20260505031503 | 55 | 237 | 6.0 | 13.0 | 0.00 | 0.00 | 0.00 | 87 | 1013.4 |
| 20260505031003 | 55 | 196 | 5.0 | 10.0 | 0.00 | 0.00 | 0.00 | 88 | 1013.4 |
| 20260505030503 | 55 | 200 | 5.0 | 11.0 | 0.00 | 0.00 | 0.00 | 87 | 1013.5 |
| 20260505030003 | 55 | 218 | 5.0 | 11.0 | 0.00 | 0.00 | 0.00 | 87 | 1013.4 |
| 20260505025502 | 55 | 246 | 6.0 | 14.0 | 0.00 | 0.00 | 0.00 | 87 | 1013.6 |
| 20260505025000 | 55 | 254 | 8.0 | 14.0 | 0.00 | 0.00 | 0.00 | 87 | 1013.6 |
| 20260505024504 | 55 | 230 | 8.0 | 14.0 | 0.00 | 0.00 | 0.00 | 87 | 1013.3 |
| 20260505024000 | 55 | 281 | 8.0 | 14.0 | 0.00 | 0.00 | 0.00 | 87 | 1013.4 |
| 20260505023500 | 55 | 201 | 8.0 | 13.0 | 0.00 | 0.00 | 0.00 | 87 | 1013.3 |
| 20260505023000 | 55 | 211 | 7.0 | 13.0 | 0.00 | 0.00 | 0.00 | 88 | 1013.4 |
| 20260505022602 | 55 | 232 | 7.0 | 14.0 | 0.00 | 0.00 | 0.00 | 88 | 1013.4 |
| 20260505022100 | 55 | 229 | 7.0 | 13.0 | 0.00 | 0.00 | 0.00 | 88 | 1013.4 |
| 20260505021613 | 54 | 219 | 5.0 | 13.0 | 0.00 | 0.00 | 0.00 | 88 | 1013.4 |
| 20260505021506 | 54 | 226 | 6.0 | 13.0 | 0.00 | 0.00 | 0.00 | 88 | 1013.5 |
| 20260505021100 | 54 | 254 | 6.0 | 12.0 | 0.00 | 0.00 | 0.00 | 88 | 1013.4 |
| 20260505020559 | 54 | 248 | 5.0 | 11.0 | 0.00 | 0.00 | 0.00 | 87 | 1013.4 |
| 20260505020101 | 54 | 252 | 6.0 | 11.0 | 0.00 | 0.00 | 0.00 | 87 | 1013.4 |
| 20260505015559 | 54 | 171 | 6.0 | 14.0 | 0.00 | 0.00 | 0.00 | 87 | 1013.5 |
| 20260505015058 | 55 | 176 | 7.0 | 15.0 | 0.00 | 0.00 | 0.00 | 87 | 1013.5 |
| 20260505014559 | 55 | 218 | 9.0 | 15.0 | 0.00 | 0.00 | 0.00 | 87 | 1013.4 |
| 20260505014057 | 55 | 236 | 7.0 | 15.0 | 0.00 | 0.00 | 0.00 | 87 | 1013.5 |
| 20260505013600 | 55 | 234 | 9.0 | 18.0 | 0.00 | 0.00 | 0.00 | 87 | 1013.3 |
| 20260505013058 | 55 | 218 | 10.0 | 18.0 | 0.00 | 0.00 | 0.00 | 87 | 1013.3 |
| 20260505012556 | 55 | 237 | 8.0 | 17.0 | 0.00 | 0.00 | 0.00 | 86 | 1013.3 |
| 20260505012100 | 55 | 274 | 10.0 | 17.0 | 0.00 | 0.00 | 0.00 | 86 | 1013.2 |
| 20260505011558 | 55 | 262 | 10.0 | 17.0 | 0.00 | 0.00 | 0.00 | 86 | 1013.1 |
| 20260505011055 | 55 | 220 | 9.0 | 17.0 | 0.00 | 0.00 | 0.00 | 86 | 1013.1 |
| 20260505010556 | 55 | 256 | 11.0 | 17.0 | 0.00 | 0.00 | 0.00 | 86 | 1012.9 |
| 20260505010056 | 55 | 232 | 8.0 | 16.0 | 0.00 | 0.00 | 0.00 | 86 | 1012.8 |
| 20260505005556 | 55 | 210 | 8.0 | 18.0 | 0.00 | 0.00 | 0.00 | 86 | 1012.8 |
| 20260505005055 | 55 | 245 | 9.0 | 21.0 | 0.00 | 0.00 | 0.00 | 86 | 1012.7 |
| 20260505004557 | 55 | 271 | 12.0 | 25.0 | 0.00 | 0.00 | 0.00 | 86 | 1012.6 |
| 20260505004055 | 54 | 220 | 15.0 | 28.0 | 0.00 | 0.00 | 0.00 | 86 | 1012.5 |
| 20260505003554 | 55 | 194 | 19.0 | 28.0 | 0.00 | 0.00 | 0.00 | 86 | 1012.2 |
| 20260505003054 | 55 | 198 | 19.0 | 24.0 | 0.00 | 0.00 | 0.00 | 86 | 1012.2 |
| 20260505002554 | 55 | 200 | 18.0 | 26.0 | 0.00 | 0.00 | 0.00 | 85 | 1012.0 |
| 20260505002055 | 55 | 202 | 20.0 | 27.0 | 0.00 | 0.00 | 0.00 | 85 | 1011.9 |
| 20260505001554 | 55 | 203 | 19.0 | 26.0 | 0.00 | 0.00 | 0.00 | 85 | 1011.9 |
| 20260505001053 | 55 | 200 | 18.0 | 26.0 | 0.00 | 0.00 | 0.00 | 85 | 1011.8 |
| 20260505000553 | 54 | 185 | 19.0 | 26.0 | 0.00 | 0.00 | 0.00 | 85 | 1011.9 |
| 20260505000056 | 54 | 200 | 18.0 | 28.0 | 0.00 | 0.00 | 0.00 | 85 | 1011.9 |
| 20260504235552 | 54 | 205 | 20.0 | 28.0 | 0.00 | 0.00 | 0.00 | 85 | 1011.8 |
| 20260504235055 | 54 | 211 | 19.0 | 26.0 | 0.00 | 0.00 | 0.00 | 85 | 1011.7 |
| 20260504234552 | 54 | 215 | 19.0 | 28.0 | 0.00 | 0.00 | 0.00 | 85 | 1011.7 |
| 20260504234052 | 55 | 215 | 19.0 | 28.0 | 0.00 | 0.00 | 0.00 | 85 | 1011.7 |
| 20260504233552 | 55 | 186 | 20.0 | 30.0 | 0.00 | 0.00 | 0.00 | 85 | 1011.6 |
| 20260504233059 | 55 | 210 | 20.0 | 30.0 | 0.00 | 0.00 | 0.00 | 85 | 1011.5 |
| 20260504232552 | 55 | 201 | 19.0 | 31.0 | 0.00 | 0.00 | 0.00 | 85 | 1011.4 |
| 20260504232050 | 55 | 192 | 18.0 | 30.0 | 0.00 | 0.00 | 0.00 | 85 | 1011.5 |
| 20260504231551 | 55 | 234 | 18.0 | 29.0 | 0.00 | 0.00 | 0.00 | 85 | 1011.5 |
| 20260504231051 | 55 | 180 | 19.0 | 29.0 | 0.00 | 0.00 | 0.00 | 85 | 1011.6 |
| 20260504230551 | 55 | 217 | 19.0 | 27.0 | 0.00 | 0.00 | 0.00 | 85 | 1011.5 |
| 20260504230050 | 55 | 200 | 17.0 | 28.0 | 0.00 | 0.00 | 0.00 | 85 | 1011.5 |
| 20260504225550 | 55 | 214 | 19.0 | 28.0 | 0.00 | 0.00 | 0.00 | 85 | 1011.4 |
| 20260504225049 | 55 | 217 | 16.0 | 25.0 | 0.00 | 0.00 | 0.00 | 85 | 1011.4 |
| 20260504224549 | 55 | 203 | 16.0 | 24.0 | 0.00 | 0.00 | 0.00 | 85 | 1011.5 |
| 20260504224050 | 55 | 198 | 14.0 | 23.0 | 0.00 | 0.00 | 0.00 | 85 | 1011.5 |
| 20260504223549 | 55 | 199 | 15.0 | 26.0 | 0.00 | 0.00 | 0.00 | 84 | 1011.5 |
| 20260504223054 | 55 | 202 | 14.0 | 30.0 | 0.00 | 0.00 | 0.00 | 85 | 1011.6 |
| 20260504222547 | 55 | 200 | 20.0 | 30.0 | 0.00 | 0.00 | 0.00 | 84 | 1011.7 |
| 20260504222052 | 55 | 191 | 17.0 | 25.0 | 0.00 | 0.00 | 0.00 | 84 | 1011.7 |
| 20260504221551 | 55 | 184 | 13.0 | 25.0 | 0.00 | 0.00 | 0.00 | 84 | 1011.8 |
| 20260504221046 | 55 | 222 | 15.0 | 22.0 | 0.00 | 0.00 | 0.00 | 84 | 1011.9 |
| 20260504220546 | 55 | 214 | 15.0 | 24.0 | 0.00 | 0.00 | 0.00 | 84 | 1011.8 |
| 20260504220104 | 55 | 186 | 16.0 | 27.0 | 0.00 | 0.00 | 0.00 | 84 | 1012.0 |
| 20260504215546 | 55 | 169 | 14.0 | 29.0 | 0.00 | 0.00 | 0.00 | 83 | 1012.0 |
| 20260504215044 | 55 | 178 | 17.0 | 29.0 | 0.00 | 0.00 | 0.00 | 83 | 1012.1 |
| 20260504214545 | 56 | 205 | 19.0 | 30.0 | 0.00 | 0.00 | 0.00 | 82 | 1012.0 |
| 20260504214044 | 56 | 191 | 20.0 | 28.0 | 0.00 | 0.00 | 0.00 | 82 | 1012.0 |
| 20260504213544 | 56 | 215 | 18.0 | 30.0 | 0.00 | 0.00 | 0.00 | 82 | 1012.0 |
| 20260504213048 | 56 | 190 | 19.0 | 29.0 | 0.00 | 0.00 | 0.00 | 81 | 1012.1 |
| 20260504212546 | 56 | 192 | 21.0 | 29.0 | 0.00 | 0.00 | 0.00 | 81 | 1012.0 |
| 20260504212044 | 56 | 198 | 18.0 | 28.0 | 0.00 | 0.00 | 0.00 | 80 | 1012.0 |
| 20260504211542 | 56 | 213 | 18.0 | 28.0 | 0.00 | 0.00 | 0.00 | 80 | 1012.0 |
| 20260504211042 | 56 | 203 | 17.0 | 26.0 | 0.00 | 0.00 | 0.00 | 80 | 1011.9 |
| 20260504210542 | 56 | 201 | 15.0 | 26.0 | 0.00 | 0.00 | 0.00 | 79 | 1011.9 |
| 20260504210043 | 56 | 172 | 16.0 | 27.0 | 0.00 | 0.00 | 0.00 | 80 | 1011.8 |
| 20260504205543 | 57 | 206 | 15.0 | 28.0 | 0.00 | 0.00 | 0.00 | 79 | 1011.9 |
| 20260504205041 | 57 | 168 | 19.0 | 31.0 | 0.00 | 0.00 | 0.00 | 79 | 1011.9 |
| 20260504204557 | 57 | 194 | 20.0 | 31.0 | 0.00 | 0.00 | 0.00 | 78 | 1011.8 |
| 20260504204041 | 57 | 210 | 19.0 | 28.0 | 0.00 | 0.00 | 0.00 | 78 | 1011.8 |
| 20260504203541 | 57 | 199 | 19.0 | 28.0 | 0.00 | 0.00 | 0.00 | 78 | 1011.9 |
| 20260504203042 | 57 | 186 | 21.0 | 31.0 | 0.00 | 0.00 | 0.00 | 79 | 1011.9 |
| 20260504202540 | 56 | 196 | 21.0 | 31.0 | 0.00 | 0.00 | 0.00 | 79 | 1011.9 |
| 20260504202042 | 57 | 204 | 19.0 | 28.0 | 0.00 | 0.00 | 0.00 | 79 | 1012.0 |
| 20260504201539 | 57 | 193 | 19.0 | 31.0 | 0.00 | 0.00 | 0.00 | 79 | 1012.0 |
| 20260504201040 | 57 | 196 | 22.0 | 33.0 | 0.00 | 0.00 | 0.00 | 79 | 1012.1 |
| 20260504200541 | 57 | 189 | 20.0 | 33.0 | 0.00 | 0.00 | 0.00 | 79 | 1012.1 |
| 20260504200044 | 57 | 186 | 22.0 | 33.0 | 0.00 | 0.00 | 0.00 | 78 | 1012.1 |
| 20260504195539 | 57 | 174 | 19.0 | 32.0 | 0.00 | 0.00 | 0.00 | 78 | 1012.2 |
| 20260504195037 | 57 | 190 | 16.0 | 29.0 | 0.00 | 0.00 | 0.00 | 78 | 1012.1 |
| 20260504194541 | 57 | 182 | 21.0 | 35.0 | 0.00 | 0.00 | 0.00 | 79 | 1012.2 |
| 20260504194040 | 57 | 205 | 20.0 | 35.0 | 0.00 | 0.00 | 0.00 | 79 | 1012.3 |
| 20260504193536 | 57 | 185 | 20.0 | 31.0 | 0.00 | 0.00 | 0.00 | 78 | 1012.3 |
| 20260504193037 | 57 | 148 | 18.0 | 28.0 | 0.00 | 0.00 | 0.00 | 78 | 1012.4 |
| 20260504192535 | 57 | 215 | 18.0 | 30.0 | 0.00 | 0.00 | 0.00 | 77 | 1012.5 |
| 20260504192035 | 57 | 192 | 22.0 | 31.0 | 0.00 | 0.00 | 0.00 | 78 | 1012.5 |
| 20260504191539 | 57 | 195 | 18.0 | 31.0 | 0.00 | 0.00 | 0.00 | 78 | 1012.6 |
| 20260504191036 | 57 | 180 | 18.0 | 33.0 | 0.00 | 0.00 | 0.00 | 78 | 1012.6 |
| 20260504190534 | 57 | 199 | 24.0 | 33.0 | 0.00 | 0.00 | 0.00 | 77 | 1012.6 |
| 20260504190037 | 57 | 196 | 22.0 | 33.0 | 0.00 | 0.00 | 0.00 | 77 | 1013.0 |
| 20260504185533 | 57 | 174 | 18.0 | 29.0 | 0.00 | 0.00 | 0.00 | 78 | 1012.8 |
| 20260504185032 | 57 | 211 | 19.0 | 29.0 | 0.00 | 0.00 | 0.00 | 77 | 1012.8 |
| 20260504184535 | 57 | 202 | 20.0 | 29.0 | 0.00 | 0.00 | 0.00 | 77 | 1012.9 |
| 20260504184031 | 57 | 178 | 19.0 | 31.0 | 0.00 | 0.00 | 0.00 | 78 | 1013.0 |
| 20260504183531 | 57 | 182 | 19.0 | 28.0 | 0.00 | 0.00 | 0.00 | 78 | 1013.0 |
| 20260504183033 | 57 | 179 | 17.0 | 29.0 | 0.00 | 0.00 | 0.00 | 78 | 1012.9 |
| 20260504182529 | 57 | 207 | 18.0 | 29.0 | 0.00 | 0.00 | 0.00 | 78 | 1013.0 |
| 20260504182029 | 57 | 201 | 18.0 | 29.0 | 0.00 | 0.00 | 0.00 | 77 | 1013.2 |
| 20260504181529 | 57 | 207 | 16.0 | 24.0 | 0.00 | 0.00 | 0.00 | 78 | 1013.1 |
| 20260504181031 | 57 | 203 | 15.0 | 23.0 | 0.00 | 0.00 | 0.00 | 78 | 1013.3 |
| 20260504180531 | 57 | 238 | 15.0 | 25.0 | 0.00 | 0.00 | 0.00 | 78 | 1013.3 |
| 20260504180029 | 57 | 219 | 16.0 | 26.0 | 0.00 | 0.00 | 0.00 | 78 | 1013.3 |
| 20260504175528 | 57 | 205 | 20.0 | 30.0 | 0.00 | 0.00 | 0.00 | 79 | 1013.3 |
| 20260504175031 | 56 | 201 | 21.0 | 26.0 | 0.00 | 0.00 | 0.00 | 78 | 1013.3 |
| 20260504174527 | 56 | 200 | 18.0 | 25.0 | 0.00 | 0.00 | 0.00 | 79 | 1013.3 |
| 20260504174026 | 56 | 184 | 18.0 | 25.0 | 0.00 | 0.00 | 0.00 | 79 | 1013.4 |
| 20260504173525 | 56 | 202 | 17.0 | 29.0 | 0.00 | 0.00 | 0.00 | 79 | 1013.5 |
| 20260504173026 | 56 | 198 | 20.0 | 29.0 | 0.00 | 0.00 | 0.00 | 79 | 1013.5 |
| 20260504172624 | 56 | 202 | 19.0 | 27.0 | 0.00 | 0.00 | 0.00 | 80 | 1013.5 |
| 20260504172024 | 56 | 199 | 18.0 | 29.0 | 0.00 | 0.00 | 0.00 | 80 | 1013.6 |
| 20260504171524 | 56 | 192 | 18.0 | 29.0 | 0.00 | 0.00 | 0.00 | 79 | 1013.6 |
| 20260504171023 | 56 | 199 | 15.0 | 29.0 | 0.00 | 0.00 | 0.00 | 79 | 1013.7 |
| 20260504170522 | 56 | 190 | 15.0 | 22.0 | 0.00 | 0.00 | 0.00 | 78 | 1013.8 |
| 20260504151015 | 59 | 230 | 8.0 | 14.0 | 0.00 | 0.00 | 0.00 | 67 | 1015.3 |
| 20260504150514 | 59 | 286 | 6.0 | 14.0 | 0.00 | 0.00 | 0.00 | 66 | 1015.2 |
| 20260504141010 | 58 | 260 | 8.0 | 17.0 | 0.00 | 0.00 | 0.00 | 64 | 1015.3 |
| 20260504140510 | 58 | 219 | 8.0 | 19.0 | 0.00 | 0.00 | 0.00 | 62 | 1015.3 |
| 20260504130502 | 56 | 229 | 9.0 | 18.0 | 0.00 | 0.00 | 0.00 | 65 | 1015.9 |
| 20260504110544 | 52 | 249 | 9.0 | 19.0 | 0.00 | 0.00 | 0.00 | 67 | 1016.2 |
| 20260504100537 | 50 | 231 | 4.0 | 9.0 | 0.00 | 0.00 | 0.00 | 74 | 1016.3 |
| 20260504081537 | 51 | 360 | 5.0 | 11.0 | 0.00 | 0.00 | 0.00 | 62 | 1015.7 |
| 20260504081021 | 51 | 360 | 5.0 | 11.0 | 0.00 | 0.00 | 0.00 | 61 | 1015.6 |
| 20260504080521 | 51 | 360 | 5.0 | 10.0 | 0.00 | 0.00 | 0.00 | 61 | 1015.5 |